Weather observations for the past three days for
Burlington Alamance Regional Airport
Imperial (Metric)
Date Time (edt) Wind (mph) Vis. (mi.) Weather Sky Cond. Temperature (ºF) Relative Humidity Wind Chill (°F) Heat Index (°F) Pressure Precipitation (in)
Air Dwpt 6 hour altimeter (in) sea level (mb) 1 hr 3 hr 6 hr
Max. Min.
23 15:54 S 6 10.00 Light Rain FEW014 SCT028 BKN046 80.1 73.9 82% 85 30.06 1017.3 0.05
23 14:54 Vrbl 3 10.00 A Few Clouds FEW065 84 73 70% 90 30.07 1017.5
23 13:54 SW 10 G 20 10.00 Thunderstorm in Vicinity SCT038 BKN049 88 72 89.1 73.9 59% 95 30.08 1017.8
23 12:54 S 5 10.00 Partly Cloudy SCT035 SCT095 87.1 72 61% 94 30.09 1018.3
23 11:54 S 5 10.00 Fair CLR 86 72 63% 92 30.1 1018.6
23 10:54 Vrbl 3 10.00 Fair CLR 84.9 73.9 70% 92 30.09 1018.3
23 09:54 S 5 10.00 Fair CLR 81 73 77% 86 30.1 1018.5
23 08:54 Vrbl 5 10.00 A Few Clouds FEW007 77 73 88% 78 30.1 1018.5
23 06:54 S 3 10.00 A Few Clouds FEW004 72 71.1 97% 30.08 1018.0
23 05:54 Calm 10.00 Fair CLR 72 70 94% 30.07 1017.5
23 04:54 Calm 9.00 Fair CLR 72 71.1 97% 30.05 1016.9
23 03:54 Calm 10.00 Fair CLR 73 71.1 94% 30.05 1016.8
23 02:54 Calm 10.00 Fair CLR 73.9 72 94% 30.05 1016.7
23 01:54 Calm 10.00 Fair CLR 73.9 72 79 73 94% 30.05 1017.0
23 00:54 Calm 10.00 Partly Cloudy SCT044 73.9 72 94% 30.05 1017.0
22 23:54 Calm 10.00 Mostly Cloudy FEW046 SCT060 BKN100 73.9 71.1 91% 30.05 1017.0
22 22:54 Calm 10.00 A Few Clouds FEW047 73 70 90% 30.05 1017.1
22 21:54 E 3 10.00 Fair CLR 75 71.1 88% 75 30.04 1016.5
22 20:54 Vrbl 5 10.00 A Few Clouds FEW055 75.9 73.9 94% 75 30.01 1015.7
22 19:54 E 9 10.00 Fair CLR 79 73 86 73 82% 82 29.99 1014.8 0.13
22 18:54 S 5 10.00 Mostly Cloudy SCT034 SCT042 BKN100 84 72 67% 90 29.97 1014.3
22 17:54 SW 9 10.00 Fair CLR 86 71.1 61% 92 29.97 1014.1
22 16:54 SW 10 10.00 A Few Clouds FEW040 86 71.1 61% 92 29.98 1014.4 0.13
22 15:54 Vrbl 3 10.00 Fair CLR 84 73.9 72% 91 30 1015.2
22 14:54 Calm 10.00 Partly Cloudy SCT035 77 73 88% 78 30.02 1016.0 0.13
22 13:54 Vrbl 5 0.75 Thunderstorm in Vicinity Heavy Rain Fog/Mist FEW017 BKN040 OVC049 73.9 71.1 82 71.1 91% 30.05 1016.9 0.21 0.22
22 12:54 Vrbl 3 10.00 A Few Clouds FEW016 81 73 77% 86 30.06 1017.2
22 11:54 SE 5 10.00 Mostly Cloudy BKN009 77 72 85% 78 30.07 1017.6
22 10:54 S 5 10.00 Light Rain BKN006 BKN010 OVC070 73.9 72 94% 30.07 1017.7 0.01
22 09:54 Calm 7.00 Light Rain BKN007 OVC070 73 71.1 94% 30.07 1017.7 0.01
22 08:54 SW 3 10.00 Overcast OVC006 72 71.1 97% 30.07 1017.5
22 07:54 S 3 10.00 Overcast OVC006 71.1 70 71.1 70 96% 30.05 1016.7 0.01 0.07
22 06:54 Calm 10.00 Light Rain OVC006 71.1 70 96% 30.05 1016.8
22 05:54 Calm 10.00 Overcast OVC006 71.1 69.1 94% 30.04 1016.5
22 04:54 Calm 10.00 Light Rain FEW095 70 69.1 97% 30.03 1016.0 0.01 0.06
22 03:54 Calm 10.00 Light Rain SCT120 71.1 69.1 94% 30.03 1016.2 0.01
22 02:54 SW 5 4.00 Rain Fog/Mist FEW090 BKN110 71.1 69.1 94% 30.05 1017.0 0.04
22 01:54 S 3 10.00 Light Rain FEW050 71.1 69.1 81 70 94% 30.06 1017.1 0.01 1.59
22 00:54 SE 3 7.00 Light Rain SCT100 BKN110 70 69.1 97% 30.08 1017.8 0.18
21 23:54 S 7 0.75 Thunderstorm Heavy Rain Fog/Mist FEW013 OVC024 70 68 93% 30.1 1018.6 1.29
21 22:54 W 3 1.50 Thunderstorm in Vicinity Rain Fog/Mist FEW027 BKN036 OVC110 77 73 88% 78 30.08 1017.8 0.11 0.11
21 21:54 Calm 10.00 Fair CLR 75.9 73 91% 76 30.06 1017.1
21 20:54 Calm 10.00 Fair CLR 78.1 73 85% 81 30.04 1016.5
21 19:54 SE 3 10.00 Fair CLR 81 72 88 81 74% 85 30.03 1016.1
21 18:54 S 3 10.00 Fair CLR 82.9 71.1 67% 88 30.01 1015.5
21 17:54 SE 5 10.00 Fair CLR 86 68 55% 89 30.02 1015.6
21 16:54 E 5 10.00 Fair CLR 87.1 69.1 55% 91 30.03 1016.0
21 15:54 Calm 10.00 Fair CLR 87.1 69.1 55% 91 30.04 1016.4
21 14:54 SW 5 10.00 A Few Clouds FEW035 84.9 69.1 59% 89 30.06 1017.0
21 13:54 SW 3 10.00 A Few Clouds FEW026 82.9 70 82.9 73 65% 87 30.08 1017.8
21 12:54 Calm 10.00 Partly Cloudy FEW022 SCT028 SCT070 82 70 67% 86 30.09 1018.4
21 11:54 Vrbl 3 10.00 Mostly Cloudy FEW018 BKN070 79 70 74% 82 30.1 1018.7
21 10:54 Calm 10.00 Overcast OVC013 77 70 79% 79 30.1 1018.6
21 09:54 Vrbl 3 10.00 Overcast OVC010 75 70 84% 75 30.09 1018.5
21 08:54 Calm 10.00 Overcast OVC007 73.9 71.1 91% 30.09 1018.4
21 07:54 Calm 10.00 Overcast OVC007 73 70 73 70 90% 30.09 1018.2 0.01
21 06:54 Calm 9.00 Overcast OVC007 72 71.1 97% 30.07 1017.6
21 05:54 Calm 10.00 Partly Cloudy SCT012 71.1 70 96% 30.07 1017.5 0.01
21 04:54 SW 5 10.00 Mostly Cloudy BKN010 72 71.1 97% 30.06 1017.2
21 03:54 Calm 9.00 Light Rain OVC006 72 71.1 97% 30.06 1017.3
21 02:54 SW 3 4.00 Fog/Mist OVC002 72 71.1 97% 30.06 1017.3
21 01:54 Calm 1.25 Fog/Mist OVC002 72 71.1 73 71.1 97% 30.08 1017.8 0.01
21 00:54 NW 3 9.00 Mostly Cloudy BKN003 72 71.1 97% 30.07 1017.7
20 23:54 NW 3 10.00 Partly Cloudy SCT009 72 71.1 97% 30.08 1017.9
20 22:54 S 6 10.00 Light Rain SCT003 SCT060 BKN100 72 71.1 97% 30.09 1018.4 0.01
20 21:54 S 3 2.50 Fog/Mist OVC002 72 71.1 97% 30.09 1018.1
20 20:54 Calm 8.00 Fair CLR 72 71.1 97% 30.08 1017.9 0.01
20 19:54 W 3 2.50 Rain Fog/Mist FEW075 BKN100 BKN120 72 71.1 82 72 97% 30.08 1017.9 0.1 0.66
20 18:54 NE 3 1.50 Heavy Rain Fog/Mist FEW032 OVC044 72 70 94% 30.07 1017.6 0.5
20 17:54 SW 5 3.00 Light Rain Fog/Mist SCT035 BKN042 OVC060 75.9 72 88% 76 30.05 1017.1 0.03
20 16:54 S 5 7.00 Light Rain FEW029 BKN075 OVC100 79 73.9 85% 83 30.05 1016.9 0.01 0.03
Date Time (edt) Wind (mph) Vis. (mi.) Weather Sky Cond. Air Dwpt Max. Min. Relative Humidity Wind Chill (°F) Heat Index (°F) altimeter (in) sea level (mb) 1 hr 3 hr 6 hr
6 hour
Temperature (ºF) Pressure Precipitation (in)